N511WM KMCO-KORF

Flight info

Callsign N511WM
Flight time N/A
Altitude 25000
Route ORLA6 CRG VIYAP Q87 JROSS Q135 RREGG KOHLS1
Aircraft BE60/L-SDFGRY/C

Departure

Time 2026-04-20 20:25
Airport Orlando International Airport (KMCO)

Arrival

Time N/A
Airport Norfolk International Airport (KORF)
Time Latitude Longitude Altitude Speed Heading
2026-04-20 20:04 28.42199 -81.33141 95 ft 0 kts 359°
2026-04-20 20:18 28.42200 -81.33142 95 ft 1 kts 359°
2026-04-20 20:18 28.42209 -81.33116 95 ft 7 kts 85°
2026-04-20 20:18 28.42213 -81.33035 95 ft 13 kts 88°
2026-04-20 20:19 28.42196 -81.32925 97 ft 14 kts 144°
2026-04-20 20:19 28.42068 -81.32914 97 ft 23 kts 179°
2026-04-20 20:19 28.41885 -81.32912 102 ft 29 kts 178°
2026-04-20 20:19 28.41669 -81.32910 103 ft 29 kts 178°
2026-04-20 20:20 28.41561 -81.32904 102 ft 12 kts 161°
2026-04-20 20:20 28.41536 -81.32829 102 ft 13 kts 88°
2026-04-20 20:20 28.41540 -81.32789 103 ft 0 kts 52°
2026-04-20 20:21 28.41540 -81.32788 103 ft 0 kts 52°
2026-04-20 20:22 28.41540 -81.32789 103 ft 0 kts 52°
2026-04-20 20:23 28.41540 -81.32788 103 ft 0 kts 52°
2026-04-20 20:24 28.41544 -81.32768 103 ft 7 kts 92°
2026-04-20 20:24 28.41546 -81.32682 103 ft 12 kts 65°
2026-04-20 20:24 28.41675 -81.32660 102 ft 44 kts
2026-04-20 20:24 28.42180 -81.32673 101 ft 94 kts
2026-04-20 20:25 28.42905 -81.32680 213 ft 117 kts
2026-04-20 20:25 28.43759 -81.32666 545 ft 128 kts
2026-04-20 20:25 28.44682 -81.32655 903 ft 136 kts
2026-04-20 20:25 28.45619 -81.32691 1276 ft 133 kts
2026-04-20 20:26 28.46546 -81.32707 1629 ft 134 kts
2026-04-20 20:26 28.47481 -81.32768 1985 ft 135 kts
2026-04-20 20:26 28.48415 -81.32862 2326 ft 135 kts
2026-04-20 20:26 28.49351 -81.32952 2650 ft 135 kts
2026-04-20 20:27 28.50281 -81.33042 3003 ft 133 kts
2026-04-20 20:27 28.51188 -81.33129 3331 ft 132 kts
2026-04-20 20:27 28.52118 -81.33217 3661 ft 133 kts
2026-04-20 20:27 28.53024 -81.33305 3992 ft 132 kts
2026-04-20 20:28 28.53933 -81.33394 4343 ft 130 kts 358°
2026-04-20 20:28 28.54832 -81.33483 4727 ft 130 kts 359°
2026-04-20 20:28 28.55736 -81.33565 5074 ft 130 kts 357°
2026-04-20 20:28 28.56645 -81.33654 5401 ft 132 kts 356°